Simultaneous Nadir Overpasses (SNOs) Predictions

Prediction of SNOs between LANDSAT-8 and NOAA-19 Satellite Orbit:

Table of predicted SNOs for the next 14.0 days since TLE Epoch: 12/10/2022
Index Date (LANDSAT-8) Time (LANDSAT-8) Lat,Lon (LANDSAT-8) SZA (LANDSAT-8 ) Date (NOAA-19) Time (NOAA-19) Lat,Lon (NOAA-19) SZA (NOAA-19 ) Distance(km) Time Diff (sec)
1 12/12/2022 10:25:08 80.90, 60.53 105.82 12/12/2022 10:23:57 80.90, 60.68 105.80 2.67 71
2 12/12/2022 11:14:35 -80.90,-131.90 74.20 12/12/2022 11:15:00 -80.90,-131.97 74.19 1.25 25
3 12/14/2022 16:48:16 80.91, -35.17 105.95 12/14/2022 16:47:41 80.90, -35.09 105.94 1.86 35
4 12/14/2022 17:37:43 -80.91, 132.43 74.06 12/14/2022 17:38:44 -80.90, 132.44 74.04 1.16 61
5 12/16/2022 23:11:25 80.91,-130.95 106.03 12/16/2022 23:11:26 80.90,-130.89 106.03 1.65 1
6 12/19/2022 04:45:08 -80.90, -34.47 73.94 12/19/2022 04:44:17 -80.90, -34.39 73.96 1.49 51
7 12/19/2022 05:34:34 80.91, 133.18 106.06 12/19/2022 05:35:11 80.90, 133.26 106.08 1.55 37
8 12/21/2022 11:08:17 -80.89,-130.40 73.96 12/21/2022 11:08:03 -80.91,-130.53 73.97 2.67 14
9 12/21/2022 11:57:43 80.89, 37.23 106.04 12/21/2022 11:58:56 80.90, 37.38 106.09 2.69 73
10 12/23/2022 16:42:05 80.71, -36.12 105.64 12/23/2022 16:40:51 80.92, -36.64 105.75 25.48 74



Historial Predications of SNOs between LANDSAT-8 and NOAA-19
